Regional Weather Roundup
Issued by NWS State College, PA

Home | Current Version | Previous Version | Text Only | Print | Product List | Glossary On
Versions: 1 2 3 4 5 6 7 8 9 10 11 12 13 14 15 16 17 18 19 20 21 22 23 24 25 26 27 28 29 30 31 32 33 34 35 36 37 38 39 40 41 42 43 44 45 46 47 48 49 50
000
ASUS41 KCTP 020310
RWRCTP

REGIONAL WEATHER ROUNDUP
NATIONAL WEATHER SERVICE STATE COLLEGE PA
1100 PM EDT FRI AUG 01 2014

Note: "fair" indicates few or no clouds below 12,000 feet with no
significant weather and/or obstructions to visibility.

* = STATION THAT DOES NOT REPORT PRECIPITATION /E.G. RAIN...SNOW...ETC/
    THUNDER OR FOG.

PAZ002>004-007>009-013>016-020>023-029>032-020400-
WESTERN PENNSYLVANIA

CITY           SKY/WX    TMP DP  RH WIND       PRES   REMARKS
ERIE           MOCLDY    72  60  66 CALM      30.11F
MEADVILLE      MOCLDY    69  62  78 NE5       30.14F
FRANKLIN*      MOCLDY    68  57  68 SE7       30.16F
NEW CASTLE     FAIR      66  63  90 CALM      30.13F
BEAVER COUNTY  NOT AVBL
BUTLER*        PTCLDY    70  61  73 SE6       30.16R
PITTSBURGH INT MOCLDY    71  62  73 CALM      30.12F
PITTSBURGH     MOCLDY    71  62  73 SE7       30.13S
INDIANA*       CLOUDY    70  61  73 SE8       30.20S
LATROBE        PTCLDY    70  63  78 CALM      30.15S
WASHINGTON CO* CLOUDY    66  63  88 CALM      30.13S
$$

PAZ004>006-010>012-017>019-024>028-033>037-041-042-045-046-049>053-020400-
CENTRAL PENNSYLVANIA

CITY           SKY/WX    TMP DP  RH WIND       PRES   REMARKS
BRADFORD       PTCLDY    61  58  90 CALM      30.19S FOG
DUBOIS         CLOUDY    70  60  70 SE7       30.17S
CLEARFIELD     MOCLDY    67  60  78 S3        30.19R
JOHNSTOWN      MOCLDY    63  59  87 S10       30.20S
ALTOONA        CLOUDY    67  61  81 S5        30.20S
STATE COLLEGE  MOCLDY    65  63  91 CALM      30.19S
WILLIAMSPORT   CLOUDY    70  62  76 E10       30.16F
SELINSGROVE    MOCLDY    65  64  97 CALM      30.19S FOG
FT INDIANTOWN  CLOUDY    68  68 100 N1        30.19F
CAPITAL CITY   CLOUDY    70  66  87 SE5       30.18F
HARRISBURG     CLOUDY    71  66  84 SE6       30.17F
YORK           CLOUDY    70  63  78 S8        30.18F
$$

PAZ038>040-043-044-047-048-054-055-060>062-067>071-020400-
EASTERN PENNSYLVANIA

CITY           SKY/WX    TMP DP  RH WIND       PRES   REMARKS
SCRANTON       CLOUDY    68  61  78 CALM      30.20S
MOUNT POCONO   CLOUDY    63  32  31 CALM      30.24F
ALLENTOWN      CLOUDY    67  64  90 CALM      30.20F
QUAKERTOWN*    CLOUDY    68  66  94 CALM      30.21S
READING        CLOUDY    69  66  90 CALM      30.18S
LANCASTER      CLOUDY    68  66  93 CALM      30.19F FOG
COATESVILLE    CLOUDY    66  66 100 CALM      30.21S FOG
POTTSTOWN      CLOUDY    69  66  90 CALM      30.21S
BLUE BELL      CLOUDY    68  68 100 CALM      30.19S
DOYLESTOWN     CLOUDY    66  66 100 CALM      30.19F
WILLOW GROVE   NOT AVBL
NORTH PHILA    CLOUDY    71  67  87 NE6       30.20F
PHILADELPHIA   CLOUDY    73  68  84 CALM      30.19S
$$


USA.gov is the U.S. government's official web portal to all federal, state and local government web resources and services.